Location: Jackson
(35.6140°N, 88.8140°W)
Time: 05:22:15
(UTC-06:00)

KKS-1 - Visible Passes

Search period start: 13 December 2019 00:00
Search period end: 23 December 2019 00:00
Orbit: 637 x 650 km, 98.3° (Epoch: 13 December)

Date Brightness Start Highest point End Pass type
(mag) Time Alt. Az. Time Alt. Az. Time Alt. Az.
13 Dec ? 05:50:31 10° ESE 05:53:46 20° ENE 05:57:01 10° NNE visible
14 Dec ? 06:14:03 10° SE 06:18:06 37° ENE 06:22:10 10° N visible
16 Dec ? 05:29:36 10° E 05:31:02 11° ENE 05:32:29 10° NE visible
17 Dec ? 05:52:00 10° ESE 05:55:17 21° ENE 05:58:35 10° NNE visible
18 Dec ? 06:15:34 10° SE 06:19:37 38° ENE 06:23:44 10° N visible
20 Dec ? 05:30:59 10° E 05:32:34 12° ENE 05:34:08 10° NE visible
21 Dec ? 05:53:29 10° ESE 05:56:49 21° ENE 06:00:09 10° NNE visible
22 Dec ? 06:17:04 10° SE 06:21:09 38° ENE 06:25:17 10° N visible
